Terminal Aerodrome Forecast
Issued by NWS

Home | Current Version | Previous Version | Text Only | Print | Product List | Glossary On
Versions: 1 2 3 4 5 6 7 8 9 10 11 12 13 14 15 16 17 18 19 20 21 22 23 24 25 26 27 28 29 30 31 32 33 34 35 36 37 38 39 40 41 42 43 44 45 46 47 48 49 50
000
FTUS44 KHGX 281227 AAA
TAFIAH
TAF AMD
KIAH 281227Z 2812/2918 33004KT P6SM BKN013 BKN200
      TEMPO 2812/2814 FEW025
     FM281600 35014KT P6SM BKN025
     FM282100 34015KT P6SM BKN035
     FM290400 34010KT P6SM SCT020
     FM290900 33006KT P6SM SCT040=

USA.gov is the U.S. government's official web portal to all federal, state and local government web resources and services.